^^

..:: Storico WU ::..




Lo storico viene creato da WUnderground con i dati che la stazione Meteomincio invia al loro server. L' aggiornamento viene fatto ogni 5 minuti circa, tuttavia possono esserci intervalli pił ampi a causa di errori, interruzioni di servizio o problemi nell' invio tramite FTP.


Storico stazione MeteoMincio
Giorno Sommario per Dicembre 09, 2022 Unità:  Inglese    Metrico   Entrambi
Giorno Settimana Mese Anno
  Max: Min: Media:
Temperatura: 42.8 °F 41 °F 41.4 °F
Dew Point: 42.8 °F 39.2 °F 40.5 °F
Umidità: 97% 95% 96%
Velocità vento: 11.2mph 0mph 4.8mph
Raffica: 17.4mph - -
Direzione- - WSW
Pressione: 29.8 in 29.6 in -
Precipitazioni: 0.46 in    
 
 
Tabulato Dati per Dicembre 09, 2022
Ora Temperatura Dew Point Pressione Direzione Velocità vento Raffica Umidità Intensità pioggia (oraria) Info solare Situazione
00:04 42.8 °F 41 °F 29.8 in North 1.2 mph 2.5 mph 95% 0.04 in 0.00 W/m2 unknown
00:09 41 °F 41 °F 29.8 in North 1.2 mph 2.5 mph 95% 0.04 in 0.00 W/m2 unknown
00:14 41 °F 41 °F 29.8 in NNW 1.2 mph 2.5 mph 95% 0.04 in 0.00 W/m2 unknown
00:19 41 °F 41 °F 29.8 in NW 1.2 mph 2.5 mph 95% 0.04 in 0.00 W/m2 unknown
00:24 42.8 °F 41 °F 29.8 in NW 1.2 mph 2.5 mph 95% 0.04 in 0.00 W/m2 unknown
00:29 42.8 °F 41 °F 29.8 in NW 1.2 mph 2.5 mph 95% 0.04 in 0.00 W/m2 unknown
00:34 41 °F 41 °F 29.8 in NW 1.2 mph 2.5 mph 95% 0.03 in 0.00 W/m2 unknown
00:39 41 °F 41 °F 29.8 in NW 1.2 mph 2.5 mph 95% 0.03 in 0.00 W/m2 unknown
00:44 41 °F 41 °F 29.8 in NW 1.2 mph 2.5 mph 95% 0.04 in 0.00 W/m2 unknown
00:49 41 °F 41 °F 29.8 in NW 0.6 mph 1.9 mph 95% 0.03 in 0.00 W/m2 unknown
00:54 41 °F 41 °F 29.8 in North 1.9 mph 3.7 mph 95% 0.04 in 0.00 W/m2 unknown
00:59 41 °F 41 °F 29.8 in North 1.2 mph 3.1 mph 95% 0.04 in 0.00 W/m2 unknown
01:04 41 °F 41 °F 29.8 in NNE 1.9 mph 3.7 mph 95% 0.04 in 0.00 W/m2 unknown
01:09 41 °F 41 °F 29.8 in NNE 1.2 mph 3.1 mph 95% 0.04 in 0.00 W/m2 unknown
01:14 41 °F 41 °F 29.8 in NNE 1.9 mph 2.5 mph 95% 0.04 in 0.00 W/m2 unknown
01:19 41 °F 41 °F 29.8 in NE 2.5 mph 3.7 mph 95% 0.04 in 0.00 W/m2 unknown
01:24 42.8 °F 41 °F 29.8 in NE 4.3 mph 5 mph 95% 0.05 in 0.00 W/m2 unknown
01:29 42.8 °F 41 °F 29.8 in ENE 4.3 mph 6.8 mph 95% 0.05 in 0.00 W/m2 unknown
01:34 41 °F 41 °F 29.8 in NE 3.1 mph 6.8 mph 95% 0.05 in 0.00 W/m2 unknown
01:39 41 °F 41 °F 29.8 in NE 3.7 mph 3.7 mph 95% 0.05 in 0.00 W/m2 unknown
01:44 41 °F 41 °F 29.8 in NE 3.1 mph 3.7 mph 95% 0.06 in 0.00 W/m2 unknown
01:49 41 °F 41 °F 29.8 in ENE 3.7 mph 5 mph 95% 0.05 in 0.00 W/m2 unknown
01:54 41 °F 41 °F 29.8 in ENE 3.7 mph 5 mph 95% 0.05 in 0.00 W/m2 unknown
01:59 41 °F 41 °F 29.8 in ENE 3.7 mph 5 mph 95% 0.05 in 0.00 W/m2 unknown
02:04 41 °F 41 °F 29.8 in ENE 3.7 mph 6.8 mph 95% 0.05 in 0.00 W/m2 unknown
02:09 41 °F 41 °F 29.8 in ENE 3.7 mph 6.8 mph 95% 0.05 in 0.00 W/m2 unknown
02:14 41 °F 41 °F 29.8 in ENE 5.6 mph 6.8 mph 95% 0.05 in 0.00 W/m2 unknown
02:19 41 °F 41 °F 29.8 in ENE 5 mph 8.1 mph 95% 0.05 in 0.00 W/m2 unknown
02:24 41 °F 41 °F 29.8 in ENE 5 mph 8.1 mph 95% 0.04 in 0.00 W/m2 unknown
02:29 41 °F 41 °F 29.8 in ENE 4.3 mph 6.8 mph 95% 0.04 in 0.00 W/m2 unknown
02:34 41 °F 39.2 °F 29.8 in ENE 3.1 mph 6.2 mph 95% 0.04 in 0.00 W/m2 unknown
02:39 41 °F 39.2 °F 29.8 in ENE 3.7 mph 5 mph 95% 0.03 in 0.00 W/m2 unknown
02:44 41 °F 39.2 °F 29.8 in ENE 3.7 mph 4.3 mph 95% 0.03 in 0.00 W/m2 unknown
02:49 41 °F 39.2 °F 29.8 in ENE 3.1 mph 5 mph 95% 0.03 in 0.00 W/m2 unknown
02:54 41 °F 39.2 °F 29.8 in ENE 3.1 mph 5 mph 95% 0.02 in 0.00 W/m2 unknown
02:59 41 °F 39.2 °F 29.8 in ENE 2.5 mph 3.7 mph 95% 0.02 in 0.00 W/m2 unknown
03:04 41 °F 41 °F 29.8 in ENE 3.1 mph 3.7 mph 96% 0.02 in 0.00 W/m2 unknown
03:09 41 °F 41 °F 29.8 in ENE 2.5 mph 3.7 mph 96% 0.02 in 0.00 W/m2 unknown
03:14 41 °F 41 °F 29.8 in East 2.5 mph 3.7 mph 96% 0.02 in 0.00 W/m2 unknown
03:19 41 °F 41 °F 29.8 in East 2.5 mph 3.7 mph 96% 0.01 in 0.00 W/m2 unknown
03:24 41 °F 39.2 °F 29.8 in East 1.9 mph 3.7 mph 96% 0.01 in 0.00 W/m2 unknown
03:29 41 °F 39.2 °F 29.8 in East 1.9 mph 3.7 mph 96% 0.01 in 0.00 W/m2 unknown
03:34 41 °F 39.2 °F 29.8 in ENE 1.9 mph 3.1 mph 96% 0.01 in 0.00 W/m2 unknown
03:39 41 °F 41 °F 29.8 in NE 2.5 mph 3.7 mph 96% 0.01 in 0.00 W/m2 unknown
03:44 41 °F 39.2 °F 29.8 in NE 1.9 mph 3.1 mph 96% 0 in 0.00 W/m2 unknown
03:49 41 °F 39.2 °F 29.8 in NE 1.9 mph 2.5 mph 96% 0 in 0.00 W/m2 unknown
03:54 41 °F 39.2 °F 29.8 in ENE 1.2 mph 2.5 mph 96% 0 in 0.00 W/m2 unknown
03:59 41 °F 39.2 °F 29.8 in ENE 0.6 mph 1.2 mph 96% 0 in 0.00 W/m2 unknown
04:04 41 °F 39.2 °F 29.8 in Calm   1.2 mph 96% 0 in 0.00 W/m2 unknown
04:09 41 °F 39.2 °F 29.8 in Calm     96% 0 in 0.00 W/m2 unknown
04:14 41 °F 39.2 °F 29.8 in ENE 0.6 mph 1.2 mph 96% 0 in 0.00 W/m2 unknown
04:19 41 °F 39.2 °F 29.8 in ENE 0.6 mph 2.5 mph 96% 0 in 0.00 W/m2 unknown
04:24 41 °F 39.2 °F 29.8 in ENE 1.2 mph 1.9 mph 96% 0 in 0.00 W/m2 unknown
04:29 41 °F 39.2 °F 29.8 in ENE 1.2 mph 2.5 mph 96% 0 in 0.00 W/m2 unknown
04:34 41 °F 39.2 °F 29.8 in ENE 1.9 mph 2.5 mph 96% 0 in 0.00 W/m2 unknown
04:39 41 °F 39.2 °F 29.8 in East 1.2 mph 2.5 mph 96% 0 in 0.00 W/m2 unknown
04:44 41 °F 39.2 °F 29.8 in East 1.2 mph 2.5 mph 96% 0 in 0.00 W/m2 unknown
04:49 41 °F 39.2 °F 29.8 in East 1.9 mph 3.1 mph 96% 0 in 0.00 W/m2 unknown
04:54 41 °F 39.2 °F 29.8 in East 1.9 mph 3.7 mph 96% 0 in 0.00 W/m2 unknown
04:59 41 °F 39.2 °F 29.8 in East 1.9 mph 3.7 mph 96% 0 in 0.00 W/m2 unknown
05:04 41 °F 39.2 °F 29.8 in East 1.2 mph 3.1 mph 96% 0 in 0.00 W/m2 unknown
05:09 41 °F 39.2 °F 29.8 in East 2.5 mph 3.7 mph 96% 0 in 0.00 W/m2 unknown
05:14 41 °F 39.2 °F 29.7 in ENE 2.5 mph 3.7 mph 96% 0 in 0.00 W/m2 unknown
05:19 41 °F 39.2 °F 29.7 in ENE 1.9 mph 3.7 mph 96% 0 in 0.00 W/m2 unknown
05:24 41 °F 39.2 °F 29.7 in ENE 1.2 mph 3.1 mph 96% 0 in 0.00 W/m2 unknown
05:29 41 °F 39.2 °F 29.7 in East 1.2 mph 3.1 mph 96% 0 in 0.00 W/m2 unknown
05:34 41 °F 39.2 °F 29.7 in East 0.6 mph 2.5 mph 96% 0 in 0.00 W/m2 unknown
05:39 41 °F 39.2 °F 29.7 in ESE 1.9 mph 3.7 mph 96% 0 in 0.00 W/m2 unknown
05:44 41 °F 39.2 °F 29.7 in ESE 1.9 mph 3.1 mph 96% 0 in 0.00 W/m2 unknown
05:49 41 °F 39.2 °F 29.7 in SSW 1.9 mph 3.7 mph 96% 0 in 0.00 W/m2 unknown
05:54 41 °F 39.2 °F 29.7 in SW 1.9 mph 3.1 mph 96% 0 in 0.00 W/m2 unknown
05:59 41 °F 39.2 °F 29.7 in SW 1.2 mph 1.9 mph 96% 0 in 0.00 W/m2 unknown
06:04 41 °F 39.2 °F 29.7 in SW 0.6 mph 1.2 mph 96% 0 in 0.00 W/m2 unknown
06:09 41 °F 39.2 °F 29.7 in SW 0.6 mph 1.9 mph 96% 0 in 0.00 W/m2 unknown
06:14 41 °F 39.2 °F 29.7 in WSW 1.9 mph 3.7 mph 96% 0 in 0.00 W/m2 unknown
06:19 41 °F 39.2 °F 29.7 in West 1.9 mph 3.1 mph 96% 0 in 0.00 W/m2 unknown
06:24 41 °F 39.2 °F 29.7 in Calm   1.9 mph 96% 0 in 0.00 W/m2 unknown
06:29 41 °F 39.2 °F 29.7 in WNW 1.9 mph 2.5 mph 96% 0 in 0.00 W/m2 unknown
06:34 41 °F 39.2 °F 29.7 in WNW 1.2 mph 1.9 mph 96% 0 in 0.00 W/m2 unknown
06:39 41 °F 39.2 °F 29.7 in WNW 1.2 mph 2.5 mph 96% 0 in 0.00 W/m2 unknown
06:44 41 °F 39.2 °F 29.7 in WNW 1.9 mph 2.5 mph 96% 0 in 0.00 W/m2 unknown
06:49 41 °F 39.2 °F 29.7 in WNW 1.2 mph 2.5 mph 96% 0 in 0.00 W/m2 unknown
06:54 41 °F 39.2 °F 29.7 in WNW 1.2 mph 2.5 mph 96% 0 in 0.00 W/m2 unknown
06:59 41 °F 39.2 °F 29.7 in WNW 1.2 mph 2.5 mph 96% 0 in 0.00 W/m2 unknown
07:04 41 °F 39.2 °F 29.7 in WNW 1.2 mph 2.5 mph 96% 0.01 in 0.00 W/m2 unknown
07:09 41 °F 39.2 °F 29.7 in WNW 0.6 mph 1.9 mph 96% 0.01 in 0.00 W/m2 unknown
07:14 41 °F 39.2 °F 29.7 in Calm   1.2 mph 96% 0.01 in 0.00 W/m2 unknown
07:19 41 °F 39.2 °F 29.7 in Calm     96% 0.01 in 0.00 W/m2 unknown
07:24 41 °F 39.2 °F 29.7 in WNW 0.6 mph 1.2 mph 96% 0.01 in 0.00 W/m2 unknown
07:29 41 °F 39.2 °F 29.7 in WNW 0.6 mph 1.9 mph 96% 0.01 in 0.00 W/m2 unknown
07:34 41 °F 39.2 °F 29.7 in WNW 0.6 mph 2.5 mph 96% 0.01 in 0.00 W/m2 unknown
07:39 41 °F 39.2 °F 29.7 in WNW 0.6 mph 1.2 mph 96% 0.02 in 0.00 W/m2 unknown
07:44 41 °F 39.2 °F 29.7 in WNW 0.6 mph 1.2 mph 96% 0.02 in 0.00 W/m2 unknown
07:49 41 °F 39.2 °F 29.7 in WNW 1.9 mph 2.5 mph 96% 0.02 in 0.00 W/m2 unknown
07:54 41 °F 39.2 °F 29.7 in WNW 1.9 mph 2.5 mph 96% 0.02 in 0.00 W/m2 unknown
07:59 41 °F 39.2 °F 29.7 in WNW 0.6 mph 1.9 mph 96% 0.03 in 0.00 W/m2 unknown
08:04 41 °F 39.2 °F 29.7 in WNW 1.9 mph 2.5 mph 96% 0.04 in 0.00 W/m2 unknown
08:09 41 °F 39.2 °F 29.7 in WNW 1.9 mph 3.7 mph 96% 0.05 in 0.00 W/m2 unknown
08:14 41 °F 39.2 °F 29.7 in West 2.5 mph 3.7 mph 96% 0.06 in 0.00 W/m2 unknown
08:19 41 °F 39.2 °F 29.7 in West 1.9 mph 3.7 mph 96% 0.06 in 0.00 W/m2 unknown
08:24 41 °F 39.2 °F 29.7 in West 2.5 mph 3.7 mph 96% 0.07 in 0.00 W/m2 unknown
08:29 41 °F 39.2 °F 29.7 in WSW 2.5 mph 3.7 mph 96% 0.08 in 0.00 W/m2 unknown
08:34 41 °F 39.2 °F 29.7 in West 1.2 mph 3.1 mph 96% 0.09 in 9.00 W/m2 unknown
08:39 41 °F 39.2 °F 29.7 in West 0.6 mph 1.9 mph 96% 0.09 in 11.00 W/m2 unknown
08:44 41 °F 39.2 °F 29.7 in West 1.2 mph 2.5 mph 96% 0.09 in 11.00 W/m2 unknown
08:49 41 °F 39.2 °F 29.7 in West 1.2 mph 2.5 mph 96% 0.09 in 12.00 W/m2 unknown
08:54 41 °F 39.2 °F 29.7 in West 0.6 mph 1.2 mph 96% 0.09 in 12.00 W/m2 unknown
08:59 41 °F 39.2 °F 29.7 in West 1.2 mph 2.5 mph 96% 0.09 in 12.00 W/m2 unknown
09:04 41 °F 39.2 °F 29.7 in West 1.2 mph 2.5 mph 96% 0.08 in 0.00 W/m2 unknown
09:09 41 °F 41 °F 29.7 in West 2.5 mph 3.7 mph 96% 0.07 in 0.00 W/m2 unknown
09:14 41 °F 41 °F 29.7 in WNW 3.1 mph 3.7 mph 96% 0.06 in 0.00 W/m2 unknown
09:19 41 °F 41 °F 29.7 in WNW 3.1 mph 5 mph 96% 0.06 in 7.00 W/m2 unknown
09:24 41 °F 41 °F 29.7 in NW 4.3 mph 6.2 mph 96% 0.06 in 30.00 W/m2 unknown
09:29 41 °F 41 °F 29.7 in NW 4.3 mph 6.2 mph 96% 0.06 in 33.00 W/m2 unknown
09:30 41 °F 41 °F 29.7 in NNW 3.1 mph 5 mph 96% 0.06 in 30.00 W/m2 unknown
09:39 41 °F 41 °F 29.7 in NNW 3.1 mph 5 mph 96% 0.06 in 30.00 W/m2 unknown
09:44 41 °F 41 °F 29.7 in North 2.5 mph 3.7 mph 96% 0.06 in 23.00 W/m2 unknown
09:49 41 °F 41 °F 29.7 in NNW 2.5 mph 3.7 mph 96% 0.06 in 21.00 W/m2 unknown
09:54 41 °F 41 °F 29.7 in NNW 3.7 mph 5 mph 96% 0.06 in 21.00 W/m2 unknown
09:59 41 °F 41 °F 29.7 in North 3.7 mph 5 mph 96% 0.06 in 26.00 W/m2 unknown
10:04 41 °F 41 °F 29.7 in NW 3.1 mph 5 mph 96% 0.06 in 26.00 W/m2 unknown
10:09 41 °F 41 °F 29.7 in WNW 2.5 mph 3.7 mph 96% 0.06 in 21.00 W/m2 unknown
10:14 41 °F 41 °F 29.7 in WNW 2.5 mph 3.7 mph 96% 0.06 in 19.00 W/m2 unknown
10:19 41 °F 41 °F 29.7 in WNW 3.7 mph 5 mph 96% 0.06 in 14.00 W/m2 unknown
10:24 41 °F 41 °F 29.7 in WNW 5 mph 6.8 mph 96% 0.06 in 12.00 W/m2 unknown
10:29 41 °F 41 °F 29.7 in WNW 5.6 mph 6.8 mph 96% 0.06 in 16.00 W/m2 unknown
10:34 41 °F 41 °F 29.7 in WNW 6.2 mph 8.1 mph 96% 0.06 in 21.00 W/m2 unknown
10:39 41 °F 41 °F 29.7 in WNW 6.2 mph 8.1 mph 96% 0.06 in 21.00 W/m2 unknown
10:44 41 °F 41 °F 29.7 in WNW 6.2 mph 8.1 mph 96% 0.06 in 19.00 W/m2 unknown
10:49 41 °F 41 °F 29.7 in NW 5 mph 6.8 mph 96% 0.06 in 23.00 W/m2 unknown
10:54 41 °F 41 °F 29.7 in NW 3.1 mph 6.2 mph 96% 0.06 in 26.00 W/m2 unknown
10:59 41 °F 41 °F 29.7 in West 3.7 mph 6.2 mph 96% 0.06 in 23.00 W/m2 unknown
11:04 41 °F 41 °F 29.7 in WNW 3.1 mph 6.2 mph 96% 0.06 in 18.00 W/m2 unknown
11:09 41 °F 41 °F 29.7 in WNW 3.7 mph 3.7 mph 96% 0.06 in 18.00 W/m2 unknown
11:14 41 °F 41 °F 29.7 in West 3.1 mph 3.7 mph 96% 0.06 in 16.00 W/m2 unknown
11:19 41 °F 41 °F 29.7 in NW 3.7 mph 5 mph 96% 0.07 in 25.00 W/m2 unknown
11:24 41 °F 41 °F 29.6 in NW 4.3 mph 6.2 mph 96% 0.08 in 54.00 W/m2 unknown
11:29 42.8 °F 41 °F 29.6 in NW 5 mph 6.8 mph 96% 0.09 in 77.00 W/m2 unknown
11:34 42.8 °F 41 °F 29.6 in WNW 5 mph 6.8 mph 97% 0.08 in 84.00 W/m2 unknown
11:39 42.8 °F 41 °F 29.6 in West 5 mph 6.8 mph 97% 0.07 in 84.00 W/m2 unknown
11:44 42.8 °F 41 °F 29.6 in West 5.6 mph 6.8 mph 97% 0.07 in 37.00 W/m2 unknown
11:49 42.8 °F 41 °F 29.6 in WSW 5.6 mph 6.8 mph 97% 0.06 in 19.00 W/m2 unknown
11:54 42.8 °F 41 °F 29.6 in WSW 5 mph 6.8 mph 97% 0.06 in 28.00 W/m2 unknown
11:59 42.8 °F 41 °F 29.6 in WNW 3.7 mph 6.2 mph 96% 0.06 in 56.00 W/m2 unknown
12:04 42.8 °F 41 °F 29.6 in WNW 5 mph 6.2 mph 97% 0.06 in 54.00 W/m2 unknown
12:09 42.8 °F 41 °F 29.6 in West 5 mph 6.2 mph 97% 0.06 in 54.00 W/m2 unknown
12:14 42.8 °F 41 °F 29.6 in WSW 5 mph 6.2 mph 97% 0.06 in 40.00 W/m2 unknown
12:19 42.8 °F 41 °F 29.6 in WSW 5.6 mph 6.8 mph 96% 0.06 in 32.00 W/m2 unknown
12:24 42.8 °F 41 °F 29.6 in WSW 6.2 mph 9.3 mph 96% 0.05 in 40.00 W/m2 unknown
12:29 42.8 °F 41 °F 29.6 in WSW 6.2 mph 8.7 mph 96% 0.05 in 56.00 W/m2 unknown
12:34 42.8 °F 41 °F 29.6 in WSW 5.6 mph 8.1 mph 97% 0.04 in 58.00 W/m2 unknown
12:39 42.8 °F 42.8 °F 29.6 in WSW 5 mph 6.8 mph 97% 0.05 in 83.00 W/m2 unknown
12:44 42.8 °F 42.8 °F 29.6 in WSW 5 mph 6.8 mph 97% 0.04 in 76.00 W/m2 unknown
12:49 42.8 °F 42.8 °F 29.6 in WSW 5.6 mph 6.8 mph 97% 0.04 in 44.00 W/m2 unknown
12:54 42.8 °F 42.8 °F 29.6 in WSW 5.6 mph 8.1 mph 97% 0.04 in 49.00 W/m2 unknown
12:59 42.8 °F 42.8 °F 29.6 in West 6.2 mph 8.1 mph 97% 0.04 in 46.00 W/m2 unknown
13:04 42.8 °F 42.8 °F 29.6 in West 9.3 mph 13 mph 97% 0.05 in 44.00 W/m2 unknown
13:09 42.8 °F 42.8 °F 29.6 in West 11.2 mph 16.2 mph 97% 0.04 in 11.00 W/m2 unknown
13:14 42.8 °F 42.8 °F 29.6 in West 9.9 mph 16.2 mph 96% 0.04 in 16.00 W/m2 unknown
13:19 42.8 °F 42.8 °F 29.6 in West 8.7 mph 13 mph 97% 0.05 in 25.00 W/m2 unknown
13:24 42.8 °F 42.8 °F 29.6 in West 8.7 mph 11.8 mph 97% 0.06 in 28.00 W/m2 unknown
13:29 42.8 °F 41 °F 29.6 in West 6.8 mph 11.8 mph 97% 0.06 in 33.00 W/m2 unknown
13:34 42.8 °F 41 °F 29.6 in West 7.5 mph 11.8 mph 96% 0.06 in 54.00 W/m2 unknown
13:39 42.8 °F 41 °F 29.6 in West 8.1 mph 11.8 mph 96% 0.05 in 54.00 W/m2 unknown
13:44 42.8 °F 41 °F 29.6 in WSW 9.3 mph 11.8 mph 96% 0.05 in 25.00 W/m2 unknown
13:49 42.8 °F 41 °F 29.6 in West 8.7 mph 11.8 mph 96% 0.04 in 58.00 W/m2 unknown
13:54 42.8 °F 41 °F 29.6 in WNW 10.6 mph 16.8 mph 96% 0.04 in 58.00 W/m2 unknown
13:59 42.8 °F 41 °F 29.6 in West 9.9 mph 17.4 mph 96% 0.04 in 30.00 W/m2 unknown
14:04 42.8 °F 41 °F 29.6 in WNW 8.1 mph 16.8 mph 97% 0.04 in 58.00 W/m2 unknown
14:09 42.8 °F 41 °F 29.6 in WNW 9.3 mph 11.8 mph 97% 0.04 in 58.00 W/m2 unknown
14:14 42.8 °F 41 °F 29.6 in West 8.7 mph 11.8 mph 97% 0.03 in 40.00 W/m2 unknown
14:19 42.8 °F 41 °F 29.6 in WNW 6.8 mph 10.6 mph 97% 0.04 in 11.00 W/m2 unknown
14:24 42.8 °F 41 °F 29.6 in West 9.9 mph 14.3 mph 97% 0.03 in 35.00 W/m2 unknown
14:29 42.8 °F 41 °F 29.6 in WNW 8.7 mph 14.3 mph 97% 0.02 in 39.00 W/m2 unknown
14:34 42.8 °F 41 °F 29.6 in West 8.1 mph 11.8 mph 96% 0.02 in 28.00 W/m2 unknown
14:39 42.8 °F 41 °F 29.6 in West 8.1 mph 11.8 mph 96% 0.02 in 33.00 W/m2 unknown
14:44 41 °F 41 °F 29.6 in West 7.5 mph 11.8 mph 96% 0.02 in 33.00 W/m2 unknown
14:49 41 °F 41 °F 29.6 in West 6.2 mph 9.9 mph 96% 0.02 in 26.00 W/m2 unknown
14:54 41 °F 41 °F 29.6 in West 8.7 mph 11.8 mph 96% 0.02 in 18.00 W/m2 unknown
14:59 41 °F 41 °F 29.6 in West 8.1 mph 11.8 mph 96% 0.02 in 14.00 W/m2 unknown
15:04 41 °F 41 °F 29.6 in West 6.8 mph 11.8 mph 96% 0.02 in 11.00 W/m2 unknown
15:09 41 °F 41 °F 29.6 in WNW 6.8 mph 9.3 mph 96% 0.02 in 16.00 W/m2 unknown
15:14 41 °F 41 °F 29.6 in WNW 8.7 mph 11.8 mph 96% 0.02 in 14.00 W/m2 unknown
15:19 41 °F 41 °F 29.6 in West 8.7 mph 11.8 mph 96% 0.02 in 9.00 W/m2 unknown
15:24 41 °F 41 °F 29.6 in West 8.7 mph 11.8 mph 96% 0.02 in 12.00 W/m2 unknown
15:29 41 °F 41 °F 29.6 in West 7.5 mph 11.8 mph 96% 0.01 in 12.00 W/m2 unknown
15:34 41 °F 41 °F 29.6 in WNW 8.1 mph 11.8 mph 96% 0 in 14.00 W/m2 unknown
15:39 41 °F 41 °F 29.6 in WNW 9.3 mph 11.8 mph 96% 0 in 14.00 W/m2 unknown
15:44 41 °F 41 °F 29.6 in WNW 8.1 mph 11.8 mph 96% 0 in 19.00 W/m2 unknown
15:49 41 °F 41 °F 29.6 in WNW 8.7 mph 11.2 mph 96% 0 in 16.00 W/m2 unknown
15:54 41 °F 41 °F 29.6 in WNW 8.7 mph 11.8 mph 96% 0 in 16.00 W/m2 unknown
15:59 41 °F 41 °F 29.6 in WNW 8.1 mph 11.8 mph 96% 0 in 7.00 W/m2 unknown
16:04 41 °F 41 °F 29.6 in WNW 7.5 mph 11.8 mph 96% 0 in 7.00 W/m2 unknown
16:09 41 °F 41 °F 29.6 in WNW 6.2 mph 9.3 mph 96% 0 in 5.00 W/m2 unknown
16:14 41 °F 41 °F 29.6 in WNW 7.5 mph 10.6 mph 96% 0 in 5.00 W/m2 unknown
16:19 41 °F 41 °F 29.6 in WNW 6.2 mph 9.9 mph 96% 0 in 5.00 W/m2 unknown
16:24 41 °F 41 °F 29.6 in WNW 6.8 mph 8.1 mph 96% 0 in 5.00 W/m2 unknown
16:29 41 °F 41 °F 29.6 in WNW 6.2 mph 9.3 mph 96% 0 in 0.00 W/m2 unknown
16:34 41 °F 41 °F 29.6 in WNW 6.2 mph 8.7 mph 96% 0 in 0.00 W/m2 unknown
16:39 41 °F 41 °F 29.6 in West 6.8 mph 9.3 mph 96% 0 in 0.00 W/m2 unknown
16:44 41 °F 41 °F 29.6 in West 6.2 mph 8.7 mph 96% 0 in 0.00 W/m2 unknown
16:48 41 °F 41 °F 29.6 in West 6.2 mph 8.1 mph 96% 0 in 0.00 W/m2 unknown
16:54 41 °F 41 °F 29.6 in West 6.8 mph 9.3 mph 96% 0 in 0.00 W/m2 unknown
16:59 41 °F 41 °F 29.6 in West 6.8 mph 9.3 mph 96% 0 in 0.00 W/m2 unknown
17:04 41 °F 41 °F 29.6 in WNW 5.6 mph 9.9 mph 96% 0 in 0.00 W/m2 unknown
17:09 41 °F 41 °F 29.6 in West 6.8 mph 10.6 mph 96% 0 in 0.00 W/m2 unknown
17:14 41 °F 41 °F 29.6 in WNW 7.5 mph 10.6 mph 96% 0 in 0.00 W/m2 unknown
17:19 41 °F 41 °F 29.6 in West 7.5 mph 9.9 mph 96% 0 in 0.00 W/m2 unknown
17:24 41 °F 41 °F 29.6 in West 6.2 mph 8.7 mph 96% 0 in 0.00 W/m2 unknown
17:29 41 °F 41 °F 29.6 in West 6.2 mph 8.1 mph 96% 0 in 0.00 W/m2 unknown
17:34 41 °F 41 °F 29.6 in West 6.2 mph 8.1 mph 96% 0 in 0.00 W/m2 unknown
17:39 41 °F 41 °F 29.6 in West 5.6 mph 8.1 mph 96% 0 in 0.00 W/m2 unknown
17:44 41 °F 41 °F 29.6 in WNW 6.2 mph 8.1 mph 96% 0 in 0.00 W/m2 unknown
17:49 41 °F 41 °F 29.6 in WNW 6.2 mph 8.1 mph 96% 0 in 0.00 W/m2 unknown
17:54 41 °F 41 °F 29.6 in West 6.2 mph 8.1 mph 96% 0 in 0.00 W/m2 unknown
17:59 41 °F 41 °F 29.6 in West 5.6 mph 8.7 mph 96% 0 in 0.00 W/m2 unknown
18:04 41 °F 41 °F 29.6 in West 9.3 mph 11.8 mph 96% 0 in 0.00 W/m2 unknown
18:09 41 °F 41 °F 29.6 in West 8.1 mph 11.8 mph 96% 0 in 0.00 W/m2 unknown
18:14 41 °F 41 °F 29.6 in WNW 5 mph 8.1 mph 96% 0 in 0.00 W/m2 unknown
18:19 41 °F 41 °F 29.6 in West 6.2 mph 8.1 mph 96% 0 in 0.00 W/m2 unknown
18:24 41 °F 41 °F 29.6 in West 6.2 mph 8.1 mph 96% 0 in 0.00 W/m2 unknown
18:29 41 °F 41 °F 29.6 in West 6.2 mph 8.1 mph 96% 0 in 0.00 W/m2 unknown
18:34 41 °F 41 °F 29.6 in West 6.8 mph 9.3 mph 96% 0 in 0.00 W/m2 unknown
18:39 41 °F 41 °F 29.6 in West 6.2 mph 10.6 mph 96% 0 in 0.00 W/m2 unknown
18:44 41 °F 41 °F 29.6 in West 6.2 mph 10.6 mph 96% 0 in 0.00 W/m2 unknown
18:49 41 °F 41 °F 29.6 in West 7.5 mph 9.9 mph 96% 0 in 0.00 W/m2 unknown
18:54 41 °F 41 °F 29.6 in West 7.5 mph 10.6 mph 96% 0 in 0.00 W/m2 unknown
18:59 41 °F 41 °F 29.6 in West 5.6 mph 9.9 mph 96% 0 in 0.00 W/m2 unknown
19:04 41 °F 41 °F 29.6 in West 7.5 mph 10.6 mph 96% 0 in 0.00 W/m2 unknown
19:09 41 °F 41 °F 29.6 in West 7.5 mph 10.6 mph 96% 0 in 0.00 W/m2 unknown
19:14 41 °F 41 °F 29.6 in West 7.5 mph 10.6 mph 96% 0 in 0.00 W/m2 unknown
19:19 41 °F 41 °F 29.6 in West 7.5 mph 11.8 mph 96% 0 in 0.00 W/m2 unknown
19:24 41 °F 41 °F 29.6 in West 8.1 mph 11.8 mph 96% 0 in 0.00 W/m2 unknown
19:29 41 °F 41 °F 29.6 in West 9.3 mph 11.8 mph 96% 0 in 0.00 W/m2 unknown
19:34 41 °F 41 °F 29.6 in West 7.5 mph 11.8 mph 96% 0 in 0.00 W/m2 unknown
19:39 41 °F 41 °F 29.6 in West 6.8 mph 10.6 mph 96% 0 in 0.00 W/m2 unknown
19:44 41 °F 41 °F 29.6 in West 8.1 mph 10.6 mph 96% 0 in 0.00 W/m2 unknown
19:49 41 °F 41 °F 29.6 in West 7.5 mph 10.6 mph 96% 0 in 0.00 W/m2 unknown
19:54 41 °F 41 °F 29.6 in West 6.8 mph 10.6 mph 96% 0 in 0.00 W/m2 unknown
19:59 41 °F 41 °F 29.6 in West 7.5 mph 11.8 mph 96% 0 in 0.00 W/m2 unknown
20:04 41 °F 41 °F 29.6 in West 6.2 mph 11.8 mph 96% 0 in 0.00 W/m2 unknown
20:09 41 °F 41 °F 29.6 in West 6.8 mph 9.3 mph 96% 0 in 0.00 W/m2 unknown
20:14 41 °F 41 °F 29.6 in West 8.7 mph 11.8 mph 96% 0 in 0.00 W/m2 unknown
20:19 41 °F 41 °F 29.6 in West 8.1 mph 11.8 mph 96% 0 in 0.00 W/m2 unknown
20:24 41 °F 41 °F 29.6 in West 8.7 mph 11.8 mph 96% 0 in 0.00 W/m2 unknown
20:29 41 °F 41 °F 29.6 in West 9.3 mph 11.8 mph 96% 0 in 0.00 W/m2 unknown
20:34 41 °F 41 °F 29.6 in West 9.3 mph 11.8 mph 96% 0 in 0.00 W/m2 unknown
20:39 41 °F 41 °F 29.6 in West 7.5 mph 11.8 mph 96% 0 in 0.00 W/m2 unknown
20:44 41 °F 41 °F 29.6 in West 8.1 mph 11.8 mph 96% 0 in 0.00 W/m2 unknown
20:49 41 °F 41 °F 29.6 in WSW 8.7 mph 11.8 mph 96% 0 in 0.00 W/m2 unknown
20:54 41 °F 41 °F 29.6 in West 8.1 mph 11.8 mph 96% 0 in 0.00 W/m2 unknown
20:59 41 °F 41 °F 29.6 in West 8.1 mph 11.2 mph 96% 0 in 0.00 W/m2 unknown
21:04 41 °F 41 °F 29.6 in West 8.7 mph 11.8 mph 96% 0 in 0.00 W/m2 unknown
21:09 41 °F 41 °F 29.6 in West 8.1 mph 11.8 mph 96% 0 in 0.00 W/m2 unknown
21:14 41 °F 41 °F 29.6 in West 6.8 mph 9.9 mph 96% 0 in 0.00 W/m2 unknown
21:19 41 °F 41 °F 29.6 in West 6.8 mph 10.6 mph 96% 0 in 0.00 W/m2 unknown
21:24 41 °F 41 °F 29.6 in West 6.2 mph 9.9 mph 96% 0 in 0.00 W/m2 unknown
21:29 41 °F 41 °F 29.6 in West 8.1 mph 11.8 mph 96% 0 in 0.00 W/m2 unknown
21:34 41 °F 41 °F 29.6 in West 8.1 mph 11.8 mph 96% 0 in 0.00 W/m2 unknown
21:39 41 °F 39.2 °F 29.6 in West 7.5 mph 11.8 mph 96% 0 in 0.00 W/m2 unknown
21:44 41 °F 39.2 °F 29.6 in West 8.7 mph 11.8 mph 96% 0 in 0.00 W/m2 unknown
21:49 41 °F 39.2 °F 29.6 in West 9.3 mph 11.8 mph 96% 0 in 0.00 W/m2 unknown
21:54 41 °F 39.2 °F 29.6 in West 6.8 mph 11.8 mph 96% 0 in 0.00 W/m2 unknown
21:59 41 °F 39.2 °F 29.6 in West 6.8 mph 9.3 mph 96% 0 in 0.00 W/m2 unknown
22:04 41 °F 39.2 °F 29.6 in West 6.8 mph 9.3 mph 96% 0 in 0.00 W/m2 unknown
22:09 41 °F 39.2 °F 29.6 in West 6.8 mph 9.3 mph 96% 0 in 0.00 W/m2 unknown
22:14 41 °F 39.2 °F 29.6 in West 6.8 mph 9.9 mph 96% 0 in 0.00 W/m2 unknown
22:19 41 °F 39.2 °F 29.6 in West 6.8 mph 10.6 mph 96% 0 in 0.00 W/m2 unknown
22:24 41 °F 39.2 °F 29.6 in West 6.2 mph 9.9 mph 96% 0 in 0.00 W/m2 unknown
22:29 41 °F 39.2 °F 29.6 in West 6.2 mph 8.7 mph 96% 0 in 0.00 W/m2 unknown
22:34 41 °F 39.2 °F 29.6 in West 6.2 mph 9.3 mph 95% 0 in 0.00 W/m2 unknown
22:39 41 °F 39.2 °F 29.6 in WSW 6.8 mph 10.6 mph 96% 0 in 0.00 W/m2 unknown
22:44 41 °F 39.2 °F 29.6 in West 7.5 mph 9.9 mph 95% 0 in 0.00 W/m2 unknown
22:49 41 °F 39.2 °F 29.6 in West 8.7 mph 11.8 mph 95% 0 in 0.00 W/m2 unknown
22:54 41 °F 39.2 °F 29.6 in West 8.1 mph 11.8 mph 95% 0 in 0.00 W/m2 unknown
22:59 41 °F 39.2 °F 29.6 in West 6.8 mph 9.3 mph 96% 0 in 0.00 W/m2 unknown
23:04 41 °F 39.2 °F 29.6 in West 7.5 mph 10.6 mph 96% 0 in 0.00 W/m2 unknown
23:09 41 °F 39.2 °F 29.6 in West 6.8 mph 9.9 mph 96% 0 in 0.00 W/m2 unknown
23:14 41 °F 39.2 °F 29.6 in West 6.2 mph 8.1 mph 96% 0 in 0.00 W/m2 unknown
23:19 41 °F 39.2 °F 29.6 in West 6.8 mph 9.3 mph 96% 0 in 0.00 W/m2 unknown
23:24 41 °F 39.2 °F 29.6 in WSW 8.1 mph 10.6 mph 96% 0 in 0.00 W/m2 unknown
23:29 41 °F 39.2 °F 29.6 in West 6.8 mph 9.9 mph 96% 0 in 0.00 W/m2 unknown
23:34 41 °F 39.2 °F 29.6 in West 7.5 mph 9.3 mph 96% 0 in 0.00 W/m2 unknown
23:39 41 °F 39.2 °F 29.6 in West 6.8 mph 9.9 mph 96% 0 in 0.00 W/m2 unknown
23:44 41 °F 39.2 °F 29.6 in West 6.8 mph 9.9 mph 96% 0 in 0.00 W/m2 unknown
23:49 41 °F 39.2 °F 29.6 in West 6.8 mph 8.7 mph 96% 0 in 0.00 W/m2 unknown
23:54 41 °F 39.2 °F 29.6 in West 6.2 mph 9.3 mph 96% 0 in 0.00 W/m2 unknown
23:59 41 °F 39.2 °F 29.6 in West 6.2 mph 9.3 mph 96% 0 in 0.00 W/m2 unknown
Stazione Meteorologica MeteoMincio Rivalta s/M (MN)
Con i complimenti di Weather Underground - 4 mb



METEO PILLOLE
Nevicata con fiocchi più grandi
Montana - USA
Nella spettacolare nevicata del 1994 caddero fiocchi del diametro di 40 cm.
Share

Non seguire questo link o sarai bannato dal sito!